Cross City, FL

3:37 AM EDT on May 21, 2018 (GMT -0400)
Cross City

Weather History for KCTY - January, 2014

Change the Weather History Date:

Sunday, January 19, 2014

  Actual Average Record
Temperature  
Mean Temperature 46 °F 53 °F  
Max Temperature 64 °F 67 °F 78 °F (2001)
Min Temperature 28 °F 40 °F 21 °F (2018)
Degree Days  
Heating Degree Days 19 12  
Month to date heating degree days 281 239  
Since 1 July heating degree days 596 744  
Cooling Degree Days 0 0  
Month to date cooling degree days 6 0  
Year to date cooling degree days 6 0  
Moisture  
Dew Point 40 °F    
Average Humidity 86    
Maximum Humidity 100    
Minimum Humidity 52    
Precipitation  
Precipitation 0.13 in 0.14 in 1.31 in (2008)
Month to date precipitation 3.83 2.48  
Year to date precipitation 3.83 2.48  
Sea Level Pressure  
Sea Level Pressure 30.15 in    
Wind  
Wind Speed 3 mph (SW)    
Max Wind Speed 17 mph    
Max Gust Speed 24 mph    
T = Trace of Precipitation, MM = Missing Value Source: NWS Daily Summary

Daily Weather History Graph

Daily Weather History Graph

Search for Another Location

Airport or City:

Astronomy

Jan. 19, 2014 Rise Set
Actual Time 7:27 AM EST 5:59 PM EST
Civil Twilight 7:01 AM EST 6:24 PM EST
Nautical Twilight 6:32 AM EST 6:53 PM EST
Astronomical Twilight 6:04 AM EST 7:22 PM EST
Moon 9:16 PM EST (1/19) 9:14 AM EST (1/19)
Length of Visible Light 11h 22m
Length of Day
10h 31m
Waning Gibbous, 89% of the Moon is Illuminated
Jan 19
Waning Gibbous
Jan 24
Last Quarter
Jan 30
New
Feb 6
First Quarter
Feb 14
Full

Hourly Weather History & Observations

Time (EST) Temp. Dew Point Humidity Pressure Visibility Wind Dir Wind Speed Gust Speed Precip Events Conditions
12:53 AM 30.0 °F 27.0 °F 88% 30.18 in - Calm Calm - N/A   Unknown
1:53 AM 30.0 °F 27.0 °F 88% 30.17 in - Calm Calm - N/A   Unknown
2:53 AM 30.0 °F 28.0 °F 92% 30.16 in - Calm Calm - N/A   Unknown
3:53 AM 30.0 °F 27.0 °F 88% 30.16 in - Calm Calm - N/A   Unknown
4:53 AM 30.0 °F 28.0 °F 92% 30.16 in - Calm Calm - N/A   Unknown
5:53 AM 30.0 °F 28.0 °F 92% 30.16 in - Calm Calm - N/A   Unknown
6:53 AM 30.0 °F 28.0 °F 92% 30.17 in - Calm Calm - N/A   Unknown
7:53 AM 32.0 °F 30.0 °F 92% 30.17 in - Calm Calm - N/A   Unknown
8:53 AM 48.0 °F 45.0 °F 89% 30.17 in - Calm Calm - N/A   Unknown
9:53 AM 55.9 °F 48.9 °F 77% 30.19 in - Calm Calm - N/A   Unknown
10:53 AM 53.1 °F 51.1 °F 93% 30.22 in - WSW 6.9 mph - 0.11 in   Unknown
11:53 AM 54.0 °F 52.0 °F 93% 30.21 in - SW 5.8 mph - 0.02 in   Unknown
12:53 PM 57.9 °F 53.1 °F 84% 30.16 in - SW 5.8 mph - N/A   Unknown
1:53 PM 62.1 °F 50.0 °F 65% 30.12 in - WSW 8.1 mph - N/A   Unknown
2:53 PM 63.0 °F 45.0 °F 52% 30.11 in - WSW 15.0 mph - N/A   Unknown
3:53 PM 61.0 °F 46.9 °F 60% 30.11 in - West 13.8 mph 19.6 mph N/A   Unknown
4:53 PM 60.1 °F 46.9 °F 62% 30.11 in - West 9.2 mph - N/A   Unknown
5:53 PM 55.9 °F 50.0 °F 80% 30.11 in - SW 5.8 mph - N/A   Unknown
6:53 PM 51.1 °F 50.0 °F 96% 30.12 in - SSW 3.5 mph - N/A   Unknown
7:53 PM 48.0 °F 46.9 °F 96% 30.12 in - South 3.5 mph - N/A   Unknown
8:53 PM 44.1 °F 44.1 °F 100% 30.13 in - Calm Calm - N/A   Unknown
9:53 PM 42.1 °F 41.0 °F 96% 30.14 in - Calm Calm - N/A   Unknown
10:53 PM 39.9 °F 39.9 °F 100% 30.15 in - Calm Calm - N/A   Unknown
11:53 PM 37.9 °F 37.9 °F 100% 30.14 in - Calm Calm - N/A   Unknown